contact:dominique.lefevre@mio.osupytheas.fr, maurice.libes@osupytheas.fr, didier.mallarino@osupytheas.fr
Project:EMSO http://www.emso-fr.org/EMSO-France
Depth: 2436.0 m
Title:EMSO Ligure Ouest : Data MII capteur MICROCAT
DateTime_Computer,Latitude,Longitude,Temperature,Conductivity,Pressure,DateTime_Instrument
DateTime_Computer,Latitude,Longitude,degC,S m-1,dbar,DateTime_Instrument
2019-06-05T00:02:20Z,42.805,6.029,13.3040,4.60046,2469.783,2019-6-05T02:02:36Z
2019-06-05T00:05:23Z,42.805,6.029,13.3046,4.60039,2469.76,2019-6-05T02:05:39Z
2019-06-05T00:08:26Z,42.805,6.029,13.3041,4.60030,2469.797,2019-6-05T02:08:42Z
2019-06-05T00:11:29Z,42.805,6.029,13.3043,4.60074,2469.806,2019-6-05T02:11:45Z
2019-06-05T00:14:32Z,42.805,6.029,13.2990,4.60052,2469.797,2019-6-05T02:14:48Z
2019-06-05T00:17:35Z,42.805,6.029,13.3051,4.59989,2469.783,2019-6-05T02:17:51Z
2019-06-05T00:20:38Z,42.805,6.029,13.3047,4.60043,2469.797,2019-6-05T02:20:53Z
2019-06-05T00:23:41Z,42.805,6.029,13.3032,4.60009,2469.797,2019-6-05T02:23:56Z
2019-06-05T00:26:44Z,42.805,6.029,13.3031,4.60034,2469.821,2019-6-05T02:26:59Z
2019-06-05T00:29:47Z,42.805,6.029,13.3041,4.60021,2469.783,2019-6-05T02:30:02Z
2019-06-05T00:32:50Z,42.805,6.029,13.3041,4.60031,2469.773,2019-6-05T02:33:05Z
2019-06-05T00:35:53Z,42.805,6.029,13.3030,4.60039,2469.76,2019-6-05T02:36:08Z
2019-06-05T00:38:56Z,42.805,6.029,13.3001,4.60031,2469.773,2019-6-05T02:39:11Z
2019-06-05T00:41:59Z,42.805,6.029,13.2996,4.60003,2469.773,2019-6-05T02:42:14Z
2019-06-05T00:45:02Z,42.805,6.029,13.2990,4.60023,2469.75,2019-6-05T02:45:17Z
2019-06-05T00:48:05Z,42.805,6.029,13.3011,4.60027,2469.773,2019-6-05T02:48:20Z
2019-06-05T00:51:08Z,42.805,6.029,13.3012,4.60017,2469.773,2019-6-05T02:51:23Z
2019-06-05T00:54:11Z,42.805,6.029,13.2990,4.60049,2469.75,2019-6-05T02:54:26Z
2019-06-05T00:57:13Z,42.805,6.029,13.2987,4.59997,2469.773,2019-6-05T02:57:29Z
2019-06-05T01:00:16Z,42.805,6.029,13.2996,4.60018,2469.773,2019-6-05T03:00:32Z
2019-06-05T01:03:19Z,42.805,6.029,13.2998,4.60033,2469.75,2019-6-05T03:03:35Z
2019-06-05T01:06:22Z,42.805,6.029,13.2995,4.60020,2469.75,2019-6-05T03:06:38Z
2019-06-05T01:09:25Z,42.805,6.029,13.2982,4.60046,2469.737,2019-6-05T03:09:41Z
2019-06-05T01:12:28Z,42.805,6.029,13.3009,4.60061,2469.737,2019-6-05T03:12:43Z
2019-06-05T01:15:31Z,42.805,6.029,13.3000,4.60032,2469.713,2019-6-05T03:15:46Z
2019-06-05T01:18:34Z,42.805,6.029,13.2976,4.60049,2469.713,2019-6-05T03:18:49Z
2019-06-05T01:21:37Z,42.805,6.029,13.3006,4.60064,2469.727,2019-6-05T03:21:52Z
2019-06-05T01:24:40Z,42.805,6.029,13.2996,4.60000,2469.737,2019-6-05T03:24:55Z
2019-06-05T01:27:43Z,42.805,6.029,13.2992,4.60006,2469.75,2019-6-05T03:27:58Z
2019-06-05T01:30:46Z,42.805,6.029,13.3014,4.59990,2469.727,2019-6-05T03:31:01Z
2019-06-05T01:33:49Z,42.805,6.029,13.3015,4.60033,2469.737,2019-6-05T03:34:04Z
2019-06-05T01:36:52Z,42.805,6.029,13.2988,4.60028,2469.75,2019-6-05T03:37:07Z
2019-06-05T01:39:55Z,42.805,6.029,13.2993,4.59999,2469.75,2019-6-05T03:40:10Z
2019-06-05T01:42:58Z,42.805,6.029,13.3023,4.60003,2469.704,2019-6-05T03:43:13Z
2019-06-05T01:46:01Z,42.805,6.029,13.3004,4.59995,2469.75,2019-6-05T03:46:16Z
2019-06-05T01:49:03Z,42.805,6.029,13.3015,4.60008,2469.704,2019-6-05T03:49:19Z
2019-06-05T01:52:06Z,42.805,6.029,13.3020,4.60003,2469.75,2019-6-05T03:52:22Z
2019-06-05T01:55:09Z,42.805,6.029,13.3010,4.60016,2469.773,2019-6-05T03:55:25Z
2019-06-05T01:58:12Z,42.805,6.029,13.3006,4.60027,2469.727,2019-6-05T03:58:28Z
2019-06-05T02:01:15Z,42.805,6.029,13.3015,4.60023,2469.713,2019-6-05T04:01:31Z
2019-06-05T02:04:18Z,42.805,6.029,13.3019,4.60032,2469.704,2019-6-05T04:04:34Z
2019-06-05T02:07:21Z,42.805,6.029,13.3012,4.60015,2469.75,2019-6-05T04:07:36Z
2019-06-05T02:10:24Z,42.805,6.029,13.3009,4.60027,2469.75,2019-6-05T04:10:39Z
2019-06-05T02:13:27Z,42.805,6.029,13.3012,4.60019,2469.737,2019-6-05T04:13:42Z
2019-06-05T02:16:30Z,42.805,6.029,13.3019,4.60028,2469.704,2019-6-05T04:16:45Z
2019-06-05T02:19:33Z,42.805,6.029,13.3026,4.60006,2469.727,2019-6-05T04:19:48Z
2019-06-05T02:22:36Z,42.805,6.029,13.3019,4.60017,2469.727,2019-6-05T04:22:51Z
2019-06-05T02:25:39Z,42.805,6.029,13.2993,4.60016,2469.704,2019-6-05T04:25:54Z
2019-06-05T02:28:42Z,42.805,6.029,13.3025,4.60006,2469.75,2019-6-05T04:28:57Z
2019-06-05T02:31:45Z,42.805,6.029,13.3029,4.60023,2469.699,2019-6-05T04:32:00Z
2019-06-05T02:34:48Z,42.805,6.029,13.3002,4.60003,2469.704,2019-6-05T04:35:03Z
2019-06-05T02:37:51Z,42.805,6.029,13.3020,4.60002,2469.727,2019-6-05T04:38:06Z
2019-06-05T02:40:54Z,42.805,6.029,13.3024,4.59999,2469.704,2019-6-05T04:41:09Z
2019-06-05T02:43:56Z,42.805,6.029,13.3004,4.60023,2469.713,2019-6-05T04:44:12Z
2019-06-05T02:46:59Z,42.805,6.029,13.3020,4.60001,2469.75,2019-6-05T04:47:15Z
2019-06-05T02:50:02Z,42.805,6.029,13.2984,4.59991,2469.69,2019-6-05T04:50:18Z
2019-06-05T02:53:05Z,42.805,6.029,13.3000,4.60015,2469.75,2019-6-05T04:53:21Z
2019-06-05T02:56:08Z,42.805,6.029,13.3022,4.60000,2469.713,2019-6-05T04:56:24Z
2019-06-05T02:59:11Z,42.805,6.029,13.2980,4.60011,2469.704,2019-6-05T04:59:27Z
2019-06-05T03:02:14Z,42.805,6.029,13.3006,4.60023,2469.704,2019-6-05T05:02:29Z
2019-06-05T03:05:17Z,42.805,6.029,13.3022,4.60045,2469.69,2019-6-05T05:05:32Z
2019-06-05T03:08:20Z,42.805,6.029,13.3019,4.60005,2469.75,2019-6-05T05:08:35Z
2019-06-05T03:11:23Z,42.805,6.029,13.3036,4.60046,2469.704,2019-6-05T05:11:38Z
2019-06-05T03:14:26Z,42.805,6.029,13.3054,4.59980,2469.69,2019-6-05T05:14:41Z
2019-06-05T03:17:29Z,42.805,6.029,13.3017,4.60007,2469.657,2019-6-05T05:17:44Z
2019-06-05T03:20:32Z,42.805,6.029,13.3044,4.60032,2469.69,2019-6-05T05:20:47Z
2019-06-05T03:23:35Z,42.805,6.029,13.3008,4.60032,2469.713,2019-6-05T05:23:50Z
2019-06-05T03:26:38Z,42.805,6.029,13.3013,4.59996,2469.667,2019-6-05T05:26:53Z
2019-06-05T03:29:41Z,42.805,6.029,13.3012,4.60029,2469.68,2019-6-05T05:29:56Z
2019-06-05T03:32:44Z,42.805,6.029,13.3003,4.60021,2469.69,2019-6-05T05:32:59Z
2019-06-05T03:35:47Z,42.805,6.029,13.3007,4.59991,2469.704,2019-6-05T05:36:02Z
2019-06-05T03:38:49Z,42.805,6.029,13.3022,4.60000,2469.69,2019-6-05T05:39:05Z
2019-06-05T03:41:52Z,42.805,6.029,13.2995,4.60008,2469.727,2019-6-05T05:42:08Z
2019-06-05T03:44:55Z,42.805,6.029,13.3020,4.60020,2469.667,2019-6-05T05:45:11Z
2019-06-05T03:47:58Z,42.805,6.029,13.3006,4.60024,2469.727,2019-6-05T05:48:14Z
2019-06-05T03:51:01Z,42.805,6.029,13.3035,4.60035,2469.713,2019-6-05T05:51:17Z
2019-06-05T03:54:04Z,42.805,6.029,13.3016,4.60014,2469.727,2019-6-05T05:54:20Z
2019-06-05T03:57:07Z,42.805,6.029,13.2990,4.59985,2469.68,2019-6-05T05:57:22Z
2019-06-05T04:00:10Z,42.805,6.029,13.2971,4.60043,2469.69,2019-6-05T06:00:25Z
2019-06-05T04:03:13Z,42.805,6.029,13.2992,4.60023,2469.727,2019-6-05T06:03:28Z
2019-06-05T04:06:16Z,42.805,6.029,13.2991,4.60003,2469.727,2019-6-05T06:06:31Z
2019-06-05T04:09:19Z,42.805,6.029,13.2998,4.60009,2469.713,2019-6-05T06:09:34Z
2019-06-05T04:12:22Z,42.805,6.029,13.3015,4.60059,2469.713,2019-6-05T06:12:37Z
2019-06-05T04:15:25Z,42.805,6.029,13.3036,4.60064,2469.727,2019-6-05T06:15:40Z
2019-06-05T04:18:28Z,42.805,6.029,13.3024,4.59985,2469.713,2019-6-05T06:18:43Z
2019-06-05T04:21:31Z,42.805,6.029,13.3033,4.60030,2469.727,2019-6-05T06:21:46Z
2019-06-05T04:24:34Z,42.805,6.029,13.3005,4.60026,2469.704,2019-6-05T06:24:49Z
2019-06-05T04:27:37Z,42.805,6.029,13.2991,4.60058,2469.76,2019-6-05T06:27:52Z
2019-06-05T04:30:39Z,42.805,6.029,13.3000,4.60031,2469.667,2019-6-05T06:30:55Z
2019-06-05T04:33:42Z,42.805,6.029,13.3014,4.60052,2469.713,2019-6-05T06:33:58Z
2019-06-05T04:36:45Z,42.805,6.029,13.3043,4.60001,2469.727,2019-6-05T06:37:01Z
2019-06-05T04:39:48Z,42.805,6.029,13.3027,4.60009,2469.704,2019-6-05T06:40:04Z
2019-06-05T04:42:51Z,42.805,6.029,13.3046,4.60012,2469.75,2019-6-05T06:43:07Z
2019-06-05T04:45:54Z,42.805,6.029,13.3063,4.59984,2469.75,2019-6-05T06:46:10Z
2019-06-05T04:48:57Z,42.805,6.029,13.2997,4.60011,2469.773,2019-6-05T06:49:12Z
2019-06-05T04:52:00Z,42.805,6.029,13.2976,4.60004,2469.713,2019-6-05T06:52:15Z
2019-06-05T04:55:03Z,42.805,6.029,13.2996,4.60008,2469.773,2019-6-05T06:55:18Z
2019-06-05T04:58:06Z,42.805,6.029,13.2992,4.60019,2469.75,2019-6-05T06:58:21Z
2019-06-05T05:01:09Z,42.805,6.029,13.3000,4.60022,2469.75,2019-6-05T07:01:24Z
2019-06-05T05:04:12Z,42.805,6.029,13.2999,4.60004,2469.737,2019-6-05T07:04:27Z
2019-06-05T05:07:15Z,42.805,6.029,13.3012,4.60004,2469.76,2019-6-05T07:07:30Z
2019-06-05T05:10:18Z,42.805,6.029,13.3019,4.59996,2469.75,2019-6-05T07:10:33Z
2019-06-05T05:13:21Z,42.805,6.029,13.3014,4.60019,2469.76,2019-6-05T07:13:36Z
2019-06-05T05:16:24Z,42.805,6.029,13.3004,4.60006,2469.75,2019-6-05T07:16:39Z
2019-06-05T05:19:27Z,42.805,6.029,13.2990,4.60003,2469.75,2019-6-05T07:19:42Z
2019-06-05T05:22:29Z,42.805,6.029,13.3002,4.60007,2469.76,2019-6-05T07:22:45Z
2019-06-05T05:25:32Z,42.805,6.029,13.3029,4.60003,2469.76,2019-6-05T07:25:48Z
2019-06-05T05:28:35Z,42.805,6.029,13.3018,4.59996,2469.76,2019-6-05T07:28:51Z
2019-06-05T05:31:38Z,42.805,6.029,13.2995,4.60011,2469.76,2019-6-05T07:31:54Z
2019-06-05T05:34:41Z,42.805,6.029,13.2979,4.59996,2469.76,2019-6-05T07:34:57Z
2019-06-05T05:37:44Z,42.805,6.029,13.2989,4.59998,2469.76,2019-6-05T07:38:00Z
2019-06-05T05:40:47Z,42.805,6.029,13.2995,4.59982,2469.797,2019-6-05T07:41:02Z
2019-06-05T05:43:50Z,42.805,6.029,13.3008,4.60001,2469.797,2019-6-05T07:44:05Z
2019-06-05T05:46:53Z,42.805,6.029,13.3008,4.59993,2469.773,2019-6-05T07:47:08Z
2019-06-05T05:49:56Z,42.805,6.029,13.3004,4.59994,2469.821,2019-6-05T07:50:11Z
2019-06-05T05:52:59Z,42.805,6.029,13.3006,4.60002,2469.797,2019-6-05T07:53:14Z
2019-06-05T05:56:02Z,42.805,6.029,13.2995,4.60009,2469.773,2019-6-05T07:56:17Z
2019-06-05T05:59:05Z,42.805,6.029,13.3031,4.60011,2469.797,2019-6-05T07:59:20Z
2019-06-05T06:02:08Z,42.805,6.029,13.3031,4.59986,2469.821,2019-6-05T08:02:23Z
2019-06-05T06:05:11Z,42.805,6.029,13.3034,4.59984,2469.783,2019-6-05T08:05:26Z
2019-06-05T06:08:14Z,42.805,6.029,13.3024,4.59974,2469.797,2019-6-05T08:08:29Z
2019-06-05T06:11:17Z,42.805,6.029,13.3019,4.59985,2469.821,2019-6-05T08:11:32Z
2019-06-05T06:14:20Z,42.805,6.029,13.3021,4.59987,2469.797,2019-6-05T08:14:35Z
2019-06-05T06:17:22Z,42.805,6.029,13.3036,4.59998,2469.821,2019-6-05T08:17:38Z
2019-06-05T06:20:25Z,42.805,6.029,13.3025,4.59999,2469.806,2019-6-05T08:20:41Z
2019-06-05T06:23:28Z,42.805,6.029,13.3034,4.60021,2469.821,2019-6-05T08:23:44Z
2019-06-05T06:26:31Z,42.805,6.029,13.3028,4.60016,2469.821,2019-6-05T08:26:47Z
2019-06-05T06:29:34Z,42.805,6.029,13.3024,4.59978,2469.844,2019-6-05T08:29:50Z
2019-06-05T06:32:37Z,42.805,6.029,13.3039,4.60011,2469.797,2019-6-05T08:32:53Z
2019-06-05T06:35:40Z,42.805,6.029,13.3034,4.60005,2469.844,2019-6-05T08:35:55Z
2019-06-05T06:38:43Z,42.805,6.029,13.3034,4.59996,2469.83,2019-6-05T08:38:58Z
2019-06-05T06:41:46Z,42.805,6.029,13.3039,4.59999,2469.83,2019-6-05T08:42:01Z
2019-06-05T06:44:49Z,42.805,6.029,13.3035,4.60004,2469.821,2019-6-05T08:45:04Z
2019-06-05T06:47:52Z,42.805,6.029,13.3029,4.59999,2469.806,2019-6-05T08:48:07Z
2019-06-05T06:50:55Z,42.805,6.029,13.3033,4.60014,2469.821,2019-6-05T08:51:10Z
2019-06-05T06:53:58Z,42.805,6.029,13.3034,4.59999,2469.853,2019-6-05T08:54:13Z
2019-06-05T06:57:01Z,42.805,6.029,13.3039,4.59999,2469.844,2019-6-05T08:57:16Z
2019-06-05T07:00:04Z,42.805,6.029,13.3039,4.60000,2469.83,2019-6-05T09:00:19Z
2019-06-05T07:03:07Z,42.805,6.029,13.3035,4.59996,2469.844,2019-6-05T09:03:22Z
2019-06-05T07:06:10Z,42.805,6.029,13.3036,4.60046,2469.806,2019-6-05T09:06:25Z
2019-06-05T07:09:13Z,42.805,6.029,13.3034,4.60025,2469.83,2019-6-05T09:09:28Z
2019-06-05T07:12:15Z,42.805,6.029,13.3042,4.60013,2469.83,2019-6-05T09:12:31Z
2019-06-05T07:15:18Z,42.805,6.029,13.3036,4.60031,2469.867,2019-6-05T09:15:34Z
2019-06-05T07:18:21Z,42.805,6.029,13.3036,4.60011,2469.89,2019-6-05T09:18:37Z
2019-06-05T07:21:24Z,42.805,6.029,13.3041,4.59994,2469.867,2019-6-05T09:21:40Z
2019-06-05T07:24:27Z,42.805,6.029,13.3039,4.60002,2469.867,2019-6-05T09:24:43Z
2019-06-05T07:27:30Z,42.805,6.029,13.3035,4.60027,2469.853,2019-6-05T09:27:46Z
2019-06-05T07:30:33Z,42.805,6.029,13.3036,4.60007,2469.844,2019-6-05T09:30:48Z
2019-06-05T07:33:36Z,42.805,6.029,13.3009,4.60029,2469.853,2019-6-05T09:33:51Z
2019-06-05T07:36:39Z,42.805,6.029,13.2965,4.60046,2469.853,2019-6-05T09:36:54Z
2019-06-05T07:39:42Z,42.805,6.029,13.2958,4.60038,2469.844,2019-6-05T09:39:57Z
2019-06-05T07:42:45Z,42.805,6.029,13.2964,4.60046,2469.844,2019-6-05T09:43:00Z
2019-06-05T07:45:48Z,42.805,6.029,13.2981,4.60032,2469.867,2019-6-05T09:46:03Z
2019-06-05T07:48:51Z,42.805,6.029,13.2954,4.60008,2469.89,2019-6-05T09:49:06Z
2019-06-05T07:51:54Z,42.805,6.029,13.2979,4.60027,2469.83,2019-6-05T09:52:09Z
2019-06-05T07:54:57Z,42.805,6.029,13.3021,4.60014,2469.853,2019-6-05T09:55:12Z
2019-06-05T07:58:00Z,42.805,6.029,13.3036,4.60034,2469.876,2019-6-05T09:58:15Z
2019-06-05T08:01:03Z,42.805,6.029,13.2963,4.60044,2469.821,2019-6-05T10:01:18Z
2019-06-05T08:04:06Z,42.805,6.029,13.2958,4.60059,2469.83,2019-6-05T10:04:21Z
2019-06-05T08:07:08Z,42.805,6.029,13.2954,4.60096,2469.806,2019-6-05T10:07:24Z
2019-06-05T08:10:11Z,42.805,6.029,13.2952,4.60021,2469.867,2019-6-05T10:10:27Z
2019-06-05T08:13:14Z,42.805,6.029,13.2964,4.60009,2469.844,2019-6-05T10:13:30Z
2019-06-05T08:16:17Z,42.805,6.029,13.2979,4.60013,2469.83,2019-6-05T10:16:33Z
2019-06-05T08:19:20Z,42.805,6.029,13.3025,4.60003,2469.867,2019-6-05T10:19:36Z
2019-06-05T08:22:23Z,42.805,6.029,13.3014,4.60033,2469.867,2019-6-05T10:22:39Z
2019-06-05T08:25:26Z,42.805,6.029,13.3009,4.60019,2469.853,2019-6-05T10:25:42Z
2019-06-05T08:28:29Z,42.805,6.029,13.2987,4.60017,2469.853,2019-6-05T10:28:44Z
2019-06-05T08:31:32Z,42.805,6.029,13.3011,4.60016,2469.844,2019-6-05T10:31:47Z
2019-06-05T08:34:35Z,42.805,6.029,13.3010,4.60022,2469.867,2019-6-05T10:34:50Z
2019-06-05T08:37:38Z,42.805,6.029,13.2993,4.59996,2469.844,2019-6-05T10:37:53Z
2019-06-05T08:40:41Z,42.805,6.029,13.2956,4.60021,2469.844,2019-6-05T10:40:56Z
2019-06-05T08:43:44Z,42.805,6.029,13.2955,4.60019,2469.867,2019-6-05T10:43:59Z
2019-06-05T08:46:47Z,42.805,6.029,13.2948,4.60001,2469.867,2019-6-05T10:47:02Z
2019-06-05T08:49:50Z,42.805,6.029,13.2951,4.59996,2469.867,2019-6-05T10:50:05Z
2019-06-05T08:52:53Z,42.805,6.029,13.2952,4.59992,2469.83,2019-6-05T10:53:08Z
2019-06-05T08:55:56Z,42.805,6.029,13.2948,4.59981,2469.844,2019-6-05T10:56:11Z
2019-06-05T08:58:59Z,42.805,6.029,13.2953,4.59999,2469.867,2019-6-05T10:59:14Z
2019-06-05T09:02:02Z,42.805,6.029,13.2952,4.59988,2469.853,2019-6-05T11:02:17Z
2019-06-05T09:05:04Z,42.805,6.029,13.2952,4.59981,2469.853,2019-6-05T11:05:20Z
2019-06-05T09:08:07Z,42.805,6.029,13.2952,4.59999,2469.844,2019-6-05T11:08:23Z
2019-06-05T09:11:10Z,42.805,6.029,13.2951,4.59992,2469.867,2019-6-05T11:11:26Z
2019-06-05T09:14:13Z,42.805,6.029,13.2952,4.59993,2469.83,2019-6-05T11:14:29Z
2019-06-05T09:17:16Z,42.805,6.029,13.2951,4.59996,2469.83,2019-6-05T11:17:32Z
2019-06-05T09:20:19Z,42.805,6.029,13.2952,4.60002,2469.806,2019-6-05T11:20:35Z
2019-06-05T09:23:22Z,42.805,6.029,13.2952,4.60029,2469.821,2019-6-05T11:23:37Z
2019-06-05T09:26:25Z,42.805,6.029,13.2953,4.60045,2469.853,2019-6-05T11:26:40Z
2019-06-05T09:29:28Z,42.805,6.029,13.2948,4.60032,2469.844,2019-6-05T11:29:43Z
2019-06-05T09:32:31Z,42.805,6.029,13.2950,4.60009,2469.853,2019-6-05T11:32:46Z
2019-06-05T09:35:34Z,42.805,6.029,13.2953,4.60014,2469.844,2019-6-05T11:35:49Z
2019-06-05T09:38:37Z,42.805,6.029,13.2954,4.60082,2469.821,2019-6-05T11:38:52Z
2019-06-05T09:41:40Z,42.805,6.029,13.2952,4.60051,2469.83,2019-6-05T11:41:55Z
2019-06-05T09:44:43Z,42.805,6.029,13.2950,4.60035,2469.821,2019-6-05T11:44:58Z
2019-06-05T09:47:46Z,42.805,6.029,13.2949,4.60020,2469.806,2019-6-05T11:48:01Z
2019-06-05T09:50:49Z,42.805,6.029,13.2952,4.60038,2469.821,2019-6-05T11:51:04Z
2019-06-05T09:53:52Z,42.805,6.029,13.2956,4.60061,2469.806,2019-6-05T11:54:07Z
2019-06-05T09:56:55Z,42.805,6.029,13.2960,4.60056,2469.783,2019-6-05T11:57:10Z
2019-06-05T09:59:58Z,42.805,6.029,13.2987,4.60060,2469.821,2019-6-05T12:00:13Z
2019-06-05T10:03:00Z,42.805,6.029,13.2959,4.60034,2469.783,2019-6-05T12:03:16Z
2019-06-05T10:06:03Z,42.805,6.029,13.3019,4.60020,2469.797,2019-6-05T12:06:19Z
2019-06-05T10:09:06Z,42.805,6.029,13.2957,4.60082,2469.783,2019-6-05T12:09:22Z
2019-06-05T10:12:09Z,42.805,6.029,13.2957,4.60080,2469.783,2019-6-05T12:12:25Z
2019-06-05T10:15:12Z,42.805,6.029,13.2956,4.60091,2469.783,2019-6-05T12:15:28Z
2019-06-05T10:18:15Z,42.805,6.029,13.2957,4.60054,2469.773,2019-6-05T12:18:31Z
2019-06-05T10:21:18Z,42.805,6.029,13.2961,4.60051,2469.783,2019-6-05T12:21:34Z
2019-06-05T10:24:21Z,42.805,6.029,13.2960,4.60049,2469.797,2019-6-05T12:24:37Z
2019-06-05T10:27:24Z,42.805,6.029,13.2958,4.60038,2469.783,2019-6-05T12:27:39Z
2019-06-05T10:30:27Z,42.805,6.029,13.2968,4.60031,2469.783,2019-6-05T12:30:42Z
2019-06-05T10:33:30Z,42.805,6.029,13.2973,4.60034,2469.797,2019-6-05T12:33:45Z
2019-06-05T10:36:33Z,42.805,6.029,13.2961,4.60034,2469.806,2019-6-05T12:36:48Z
2019-06-05T10:39:36Z,42.805,6.029,13.2954,4.60052,2469.797,2019-6-05T12:39:51Z
2019-06-05T10:42:39Z,42.805,6.029,13.2951,4.60087,2469.783,2019-6-05T12:42:54Z
2019-06-05T10:45:42Z,42.805,6.029,13.2954,4.60052,2469.773,2019-6-05T12:45:57Z
2019-06-05T10:48:45Z,42.805,6.029,13.2954,4.60004,2469.797,2019-6-05T12:49:00Z
2019-06-05T10:51:48Z,42.805,6.029,13.2951,4.59986,2469.783,2019-6-05T12:52:03Z
2019-06-05T10:54:51Z,42.805,6.029,13.2953,4.59991,2469.806,2019-6-05T12:55:06Z
2019-06-05T10:57:54Z,42.805,6.029,13.2953,4.59991,2469.773,2019-6-05T12:58:09Z
2019-06-05T11:00:56Z,42.805,6.029,13.2954,4.59983,2469.783,2019-6-05T13:01:12Z
2019-06-05T11:03:59Z,42.805,6.029,13.2950,4.60016,2469.76,2019-6-05T13:04:15Z
2019-06-05T11:07:02Z,42.805,6.029,13.2949,4.60021,2469.76,2019-6-05T13:07:18Z
2019-06-05T11:10:05Z,42.805,6.029,13.2952,4.60011,2469.783,2019-6-05T13:10:21Z
2019-06-05T11:13:08Z,42.805,6.029,13.2951,4.60017,2469.773,2019-6-05T13:13:24Z
2019-06-05T11:16:11Z,42.805,6.029,13.2954,4.60025,2469.797,2019-6-05T13:16:27Z
2019-06-05T11:19:14Z,42.805,6.029,13.2952,4.60034,2469.797,2019-6-05T13:19:30Z
2019-06-05T11:22:17Z,42.805,6.029,13.2954,4.60038,2469.76,2019-6-05T13:22:32Z
2019-06-05T11:25:20Z,42.805,6.029,13.2951,4.60058,2469.76,2019-6-05T13:25:35Z
2019-06-05T11:28:23Z,42.805,6.029,13.2951,4.60051,2469.773,2019-6-05T13:28:38Z
2019-06-05T11:31:26Z,42.805,6.029,13.2951,4.60068,2469.75,2019-6-05T13:31:41Z
2019-06-05T11:34:29Z,42.805,6.029,13.2953,4.60052,2469.746,2019-6-05T13:34:44Z
2019-06-05T11:37:32Z,42.805,6.029,13.2950,4.60025,2469.737,2019-6-05T13:37:47Z
2019-06-05T11:40:35Z,42.805,6.029,13.2953,4.60039,2469.737,2019-6-05T13:40:50Z
2019-06-05T11:43:38Z,42.805,6.029,13.2953,4.60031,2469.727,2019-6-05T13:43:53Z
2019-06-05T11:46:41Z,42.805,6.029,13.2955,4.60055,2469.737,2019-6-05T13:46:56Z
2019-06-05T11:49:44Z,42.805,6.029,13.2955,4.60045,2469.773,2019-6-05T13:49:59Z
2019-06-05T11:52:47Z,42.805,6.029,13.2950,4.60045,2469.713,2019-6-05T13:53:02Z
2019-06-05T11:55:50Z,42.805,6.029,13.2957,4.60036,2469.704,2019-6-05T13:56:05Z
2019-06-05T11:58:53Z,42.805,6.029,13.2953,4.60064,2469.704,2019-6-05T13:59:08Z
2019-06-05T12:01:55Z,42.805,6.029,13.2960,4.60035,2469.737,2019-6-05T14:02:11Z
2019-06-05T12:04:58Z,42.805,6.029,13.2957,4.60073,2469.704,2019-6-05T14:05:14Z
2019-06-05T12:08:01Z,42.805,6.029,13.2955,4.60054,2469.75,2019-6-05T14:08:17Z
2019-06-05T12:11:04Z,42.805,6.029,13.2957,4.60029,2469.713,2019-6-05T14:11:20Z
2019-06-05T12:14:07Z,42.805,6.029,13.2960,4.60052,2469.704,2019-6-05T14:14:23Z
2019-06-05T12:17:10Z,42.805,6.029,13.2954,4.60104,2469.727,2019-6-05T14:17:26Z
2019-06-05T12:20:13Z,42.805,6.029,13.2955,4.60072,2469.727,2019-6-05T14:20:29Z
2019-06-05T12:23:16Z,42.805,6.029,13.2953,4.60040,2469.75,2019-6-05T14:23:31Z
2019-06-05T12:26:19Z,42.805,6.029,13.2953,4.60029,2469.713,2019-6-05T14:26:34Z
2019-06-05T12:29:22Z,42.805,6.029,13.2953,4.60058,2469.75,2019-6-05T14:29:37Z
2019-06-05T12:32:25Z,42.805,6.029,13.2953,4.60072,2469.727,2019-6-05T14:32:40Z
2019-06-05T12:35:28Z,42.805,6.029,13.2954,4.60085,2469.69,2019-6-05T14:35:43Z
2019-06-05T12:38:31Z,42.805,6.029,13.2952,4.60090,2469.69,2019-6-05T14:38:46Z
2019-06-05T12:41:34Z,42.805,6.029,13.2960,4.60080,2469.727,2019-6-05T14:41:49Z
2019-06-05T12:44:37Z,42.805,6.029,13.2955,4.60094,2469.713,2019-6-05T14:44:52Z
2019-06-05T12:47:40Z,42.805,6.029,13.2956,4.60087,2469.704,2019-6-05T14:47:55Z
2019-06-05T12:50:43Z,42.805,6.029,13.2956,4.60083,2469.68,2019-6-05T14:50:58Z
2019-06-05T12:53:46Z,42.805,6.029,13.2961,4.60099,2469.69,2019-6-05T14:54:01Z
2019-06-05T12:56:49Z,42.805,6.029,13.2958,4.60069,2469.713,2019-6-05T14:57:04Z
2019-06-05T12:59:51Z,42.805,6.029,13.2961,4.60069,2469.69,2019-6-05T15:00:07Z
2019-06-05T13:02:54Z,42.805,6.029,13.2960,4.60079,2469.704,2019-6-05T15:03:10Z
2019-06-05T13:05:57Z,42.805,6.029,13.2963,4.60074,2469.727,2019-6-05T15:06:13Z
2019-06-05T13:09:00Z,42.805,6.029,13.2960,4.60086,2469.667,2019-6-05T15:09:16Z
2019-06-05T13:12:03Z,42.805,6.029,13.2964,4.60078,2469.69,2019-6-05T15:12:19Z
2019-06-05T13:15:06Z,42.805,6.029,13.2965,4.60050,2469.69,2019-6-05T15:15:22Z
2019-06-05T13:18:09Z,42.805,6.029,13.2973,4.60022,2469.704,2019-6-05T15:18:25Z
2019-06-05T13:21:12Z,42.805,6.029,13.3019,4.60017,2469.643,2019-6-05T15:21:27Z
2019-06-05T13:24:15Z,42.805,6.029,13.3059,4.60016,2469.704,2019-6-05T15:24:30Z
2019-06-05T13:27:18Z,42.805,6.029,13.3046,4.60028,2469.69,2019-6-05T15:27:33Z
2019-06-05T13:30:21Z,42.805,6.029,13.3064,4.60007,2469.727,2019-6-05T15:30:36Z
2019-06-05T13:33:24Z,42.805,6.029,13.3074,4.60006,2469.704,2019-6-05T15:33:39Z
2019-06-05T13:36:27Z,42.805,6.029,13.3064,4.60013,2469.704,2019-6-05T15:36:42Z
2019-06-05T13:39:30Z,42.805,6.029,13.3060,4.60009,2469.704,2019-6-05T15:39:45Z
2019-06-05T13:42:33Z,42.805,6.029,13.3036,4.60005,2469.68,2019-6-05T15:42:48Z
2019-06-05T13:45:36Z,42.805,6.029,13.3043,4.59993,2469.68,2019-6-05T15:45:51Z
2019-06-05T13:48:39Z,42.805,6.029,13.3003,4.59991,2469.667,2019-6-05T15:48:54Z
2019-06-05T13:51:42Z,42.805,6.029,13.2998,4.60006,2469.643,2019-6-05T15:51:57Z
2019-06-05T13:54:45Z,42.805,6.029,13.3034,4.59996,2469.704,2019-6-05T15:55:00Z
2019-06-05T13:57:48Z,42.805,6.029,13.3036,4.59983,2469.667,2019-6-05T15:58:03Z
2019-06-05T14:00:50Z,42.805,6.029,13.3045,4.59990,2469.667,2019-6-05T16:01:06Z
2019-06-05T14:03:53Z,42.805,6.029,13.3043,4.59984,2469.643,2019-6-05T16:04:09Z
2019-06-05T14:06:56Z,42.805,6.029,13.3019,4.59995,2469.68,2019-6-05T16:07:12Z
2019-06-05T14:09:59Z,42.805,6.029,13.3023,4.60001,2469.704,2019-6-05T16:10:15Z
2019-06-05T14:13:02Z,42.805,6.029,13.3015,4.59986,2469.68,2019-6-05T16:13:18Z
2019-06-05T14:16:05Z,42.805,6.029,13.3042,4.59985,2469.68,2019-6-05T16:16:21Z
2019-06-05T14:19:08Z,42.805,6.029,13.3032,4.59983,2469.68,2019-6-05T16:19:24Z
2019-06-05T14:22:11Z,42.805,6.029,13.3039,4.59990,2469.704,2019-6-05T16:22:26Z
2019-06-05T14:25:14Z,42.805,6.029,13.3041,4.59990,2469.667,2019-6-05T16:25:29Z
2019-06-05T14:28:17Z,42.805,6.029,13.3010,4.59992,2469.657,2019-6-05T16:28:32Z
2019-06-05T14:31:20Z,42.805,6.029,13.3015,4.59977,2469.667,2019-6-05T16:31:35Z
2019-06-05T14:34:23Z,42.805,6.029,13.3026,4.59973,2469.68,2019-6-05T16:34:38Z
2019-06-05T14:37:26Z,42.805,6.029,13.3037,4.59988,2469.657,2019-6-05T16:37:41Z
2019-06-05T14:40:29Z,42.805,6.029,13.3027,4.60026,2469.68,2019-6-05T16:40:44Z
2019-06-05T14:43:32Z,42.805,6.029,13.3021,4.60009,2469.704,2019-6-05T16:43:47Z
2019-06-05T14:46:35Z,42.805,6.029,13.3029,4.60016,2469.704,2019-6-05T16:46:50Z
2019-06-05T14:49:38Z,42.805,6.029,13.3026,4.59990,2469.667,2019-6-05T16:49:53Z
2019-06-05T14:52:41Z,42.805,6.029,13.3018,4.60008,2469.667,2019-6-05T16:52:56Z
2019-06-05T14:55:44Z,42.805,6.029,13.3030,4.60007,2469.68,2019-6-05T16:55:59Z
2019-06-05T14:58:46Z,42.805,6.029,13.3031,4.60034,2469.68,2019-6-05T16:59:02Z
2019-06-05T15:01:49Z,42.805,6.029,13.3037,4.60020,2469.727,2019-6-05T17:02:05Z
2019-06-05T15:04:52Z,42.805,6.029,13.3031,4.59996,2469.68,2019-6-05T17:05:08Z
2019-06-05T15:07:55Z,42.805,6.029,13.3035,4.60002,2469.657,2019-6-05T17:08:11Z
2019-06-05T15:10:58Z,42.805,6.029,13.3035,4.60006,2469.671,2019-6-05T17:11:14Z